{"data":{"norad_id":50173,"intl_designator":"2021-125T","name":"STARLINK-3289","alt_names":[],"object_type":"PAYLOAD","status":"ACTIVE","operator":null,"country":"US","launch_date":"2021-12-18","launch_site_code":"AFWTR","launch_vehicle":null,"mission":null,"orbit_class":"UNKNOWN","rcs_meters":null,"size_class":null,"mass_kg":null,"dimensions":null,"purposes":["comms"],"wikipedia_slug":null,"has_3d_model":false,"image_url":null,"decayed_at":null,"tle_current":{"epoch":"2026-05-25T00:12:57.320064Z","epoch_age_seconds":67476,"freshness":"FRESH","line1":"1 50173U 21125T   26145.00899676  .00016990  00000+0  96436-3 0  9995","line2":"2 50173  53.2147 254.8785 0000697 125.5316 234.5743 15.13058666248298","mean_motion":15.13058666,"eccentricity":6.97e-5,"inclination_deg":53.2147,"raan_deg":254.8785,"arg_perigee_deg":125.5316,"mean_anomaly_deg":234.5743,"bstar":0.00096436,"rev_number":24829,"period_min":95.171458474036,"perigee_km":526.39730510369,"apogee_km":527.35986427619,"semimajor_km":6905.0155846899,"source":"CELESTRAK","updated_at":"2026-05-25T13:38:16.844443Z"}}}